Find Starlink 6038

NORAD ID: 56317 Int'l Des: 2023-058 Owner: SPXS Country: US Constellation: starlink operational
LEOCIRCULARRETROGRADESSO

当前视图

正在加载3D地球...

About Starlink 6038

Starlink 6038 (NORAD 56317) is a starlink constellation satellite (v1.5) launched Apr 27, 2023 by SPXS of US. It operates in LEO, CIRCULAR, RETROGRADE, SSO orbit with a mass of 300.00 kg.

关于 Starlink 6038

正在加载描述...

即将过境

Passes for default location (London). Set your location on the main map for personalized predictions.

高度历史

Loading altitude history...

两行轨道根数

1 56317U 23058A 26170.94608718 .00001167 00000-0 84791-4 0 9997
2 56317 97.3378 170.9382 0001663 88.2338 271.9080 15.05653910173237
Epoch: Jun 19, 2026 • Age: 39 hours

当前状态

高度 559.0 km
速度 7.58 km/s
星下点 -23.50°S, 128.78°W
发射日期 Apr 27, 2023
运行时间 3.1 years
类型 internet

技术详情

分类 Payload
质量 300.00 kg
干质量 260.00 kg
总质量 300.00 kg
长度 0.20 m
直径 2.80 m
跨度 9.00 m
形状 Box + pan
制造商 SPXS
平台类型 Starlink
阶段状态 In Orbit
所有者/国家 SPXS/US

Most Searched